Weather History for KDSM - November, 2012

Change the Weather History Date:

Monday, November 5, 2012

  Actual Average Record
Temperature  
Mean Temperature 43 °F 45 °F  
Max Temperature 45 °F 54 °F 75 °F (1909)
Min Temperature 40 °F 36 °F 14 °F (1951)
Degree Days  
Heating Degree Days 22 20  
Month to date heating degree days 98 96  
Since 1 July heating degree days 552 580  
Cooling Degree Days 0 0  
Month to date cooling degree days 0 0  
Year to date cooling degree days 1610 1066  
Moisture  
Dew Point 37 °F    
Average Humidity 80    
Maximum Humidity 89    
Minimum Humidity 70    
Precipitation  
Precipitation 0.17 in 0.09 in 1.29 in (1905)
Month to date precipitation 0.37 0.43  
Year to date precipitation 23.40 32.84  
Snow  
Snow 0.00 in 0.00 in 1.70 in (1959)
Month to date snowfall 0.0 0.1  
Since 1 July snowfall 0.0 0.5  
Since 1 September snowfall 0.0 0.5  
Snow Depth 0.00 in    
Sea Level Pressure  
Sea Level Pressure 30.12 in    
Wind  
Wind Speed 7 mph (ESE)    
Max Wind Speed 14 mph    
Max Gust Speed 18 mph    
Visibility 5 miles    
Events Rain    
T = Trace of Precipitation, MM = Missing Value Source: NWS Daily Summary

Daily Weather History Graph

Daily Weather History Graph

Search for Another Location

Airport or City:

Trip Planner

Search our weather history database for the weather conditions in past years. The results will help you decide how hot, cold, wet, or windy it might be!

Date:

Astronomy

Nov. 05, 2012 Rise Set
Actual Time 6:51 AM CST 5:04 PM CST
Civil Twilight 6:22 AM CST 5:33 PM CST
Nautical Twilight 5:49 AM CST 6:06 PM CST
Astronomical Twilight 5:17 AM CST 6:38 PM CST
Moon 10:42 PM CST (11/5) 12:11 PM CST (11/5)
Length of Visible Light 11h 10m
Length of Day
10h 12m
Waning Gibbous, 62% of the Moon is Illuminated
Nov 5
Waning Gibbous
Nov 6
Last Quarter
Nov 13
New
Nov 20
First Quarter
Nov 28
Full

Hourly Weather History & Observations

Time (CST) Temp. Windchill Dew Point Humidity Pressure Visibility Wind Dir Wind Speed Gust Speed Precip Events Conditions
12:01 AM 42.8 °F 36.6 °F 39.2 °F 87% 30.07 in 4.0 mi ESE 11.5 mph - 0.00 in Rain Light Rain
12:54 AM 42.1 °F 36.1 °F 39.0 °F 89% 30.08 in 4.0 mi ESE 10.4 mph - 0.03 in Rain Light Rain
1:54 AM 42.1 °F 36.6 °F 39.0 °F 89% 30.08 in 3.0 mi ESE 9.2 mph - 0.02 in Rain Light Rain
2:54 AM 42.1 °F 36.1 °F 39.0 °F 89% 30.08 in 3.0 mi ESE 10.4 mph 18.4 mph 0.04 in Rain Light Rain
3:54 AM 41.0 °F 34.7 °F 37.9 °F 89% 30.08 in 4.0 mi East 10.4 mph - 0.04 in Rain Light Rain
4:54 AM 41.0 °F 34.7 °F 37.9 °F 89% 30.08 in 4.0 mi East 10.4 mph - 0.03 in Rain Light Rain
5:54 AM 41.0 °F 35.2 °F 37.9 °F 89% 30.09 in 5.0 mi East 9.2 mph - 0.01 in   Light Drizzle
6:54 AM 41.0 °F 36.4 °F 37.0 °F 86% 30.10 in 6.0 mi East 6.9 mph - 0.00 in   Light Drizzle
7:54 AM 41.0 °F 36.4 °F 37.9 °F 89% 30.13 in 3.0 mi East 6.9 mph - 0.00 in   Overcast
8:54 AM 41.0 °F 36.4 °F 37.9 °F 89% 30.14 in 3.0 mi ENE 6.9 mph - N/A   Overcast
9:07 AM 41.0 °F 38.0 °F 37.4 °F 87% 30.13 in 2.5 mi East 4.6 mph - N/A   Overcast
9:20 AM 41.0 °F 36.4 °F 37.4 °F 87% 30.14 in 3.0 mi ENE 6.9 mph - N/A   Overcast
9:54 AM 41.0 °F 35.8 °F 37.0 °F 86% 30.16 in 3.0 mi ENE 8.1 mph - 0.00 in   Light Drizzle
10:54 AM 42.1 °F 37.7 °F 37.0 °F 82% 30.17 in 4.0 mi ENE 6.9 mph - 0.00 in   Haze
11:50 AM 42.8 °F 38.6 °F 37.4 °F 81% 30.15 in 5.0 mi ENE 6.9 mph - N/A   Haze
11:54 AM 42.1 °F 38.4 °F 37.0 °F 82% 30.17 in 5.0 mi East 5.8 mph - N/A   Haze
12:54 PM 43.0 °F 37.7 °F 36.0 °F 76% 30.16 in 5.0 mi East 9.2 mph - N/A   Haze
1:02 PM 42.8 °F 37.5 °F 35.6 °F 76% 30.13 in 6.0 mi East 9.2 mph - N/A   Haze
1:54 PM 44.1 °F 40.1 °F 36.0 °F 73% 30.14 in 6.0 mi East 6.9 mph - N/A   Haze
2:54 PM 45.0 °F 42.6 °F 35.1 °F 68% 30.13 in 6.0 mi Variable 4.6 mph - N/A   Haze
3:54 PM 44.1 °F 40.8 °F 36.0 °F 73% 30.14 in 6.0 mi ESE 5.8 mph - N/A   Haze
4:54 PM 44.1 °F 41.5 °F 36.0 °F 73% 30.15 in 7.0 mi SE 4.6 mph - N/A   Overcast
5:54 PM 43.0 °F 41.3 °F 36.0 °F 76% 30.16 in 8.0 mi SSE 3.5 mph - N/A   Overcast
6:54 PM 43.0 °F 40.3 °F 36.0 °F 76% 30.15 in 7.0 mi SE 4.6 mph - N/A   Overcast
7:54 PM 42.1 °F 38.4 °F 36.0 °F 79% 30.13 in 7.0 mi SSE 5.8 mph - N/A   Overcast
8:28 PM 39.2 °F 35.9 °F 35.6 °F 87% 30.11 in 7.0 mi SSE 4.6 mph - N/A   Partly Cloudy
8:41 PM 39.2 °F 35.9 °F 35.6 °F 87% 30.11 in 7.0 mi SSE 4.6 mph - N/A   Mostly Cloudy
8:54 PM 39.9 °F 37.8 °F 36.0 °F 86% 30.13 in 6.0 mi South 3.5 mph - N/A   Overcast
9:54 PM 41.0 °F - 36.0 °F 82% 30.13 in 6.0 mi Calm Calm - N/A   Haze
10:54 PM 42.1 °F 38.4 °F 37.0 °F 82% 30.12 in 6.0 mi SW 5.8 mph - N/A   Haze
11:54 PM 42.1 °F 38.4 °F 37.0 °F 82% 30.08 in 6.0 mi South 5.8 mph - N/A   Haze